Regional Weather Roundup
Issued by NWS State College, PA

Home | Current Version | Previous Version | Text Only | Print | Product List | Glossary Off
Versions: 1 2 3 4 5 6 7 8 9 10 11 12 13 14 15 16 17 18 19 20 21 22 23 24 25 26 27 28 29 30 31 32 33 34 35 36 37 38 39 40 41 42 43 44 45 46 47 48 49 50

000
ASUS41 KCTP 272210
RWRCTP

REGIONAL WEATHER ROUNDUP
NATIONAL WEATHER SERVICE STATE COLLEGE PA
600 PM EDT SAT AUG 27 2016

Note: "fair" indicates few or no clouds below 12,000 feet with no
significant weather and/or obstructions to visibility.

* = STATION THAT DOES NOT REPORT PRECIPITATION /E.G. RAIN...SNOW...ETC/
    THUNDER OR FOG.

PAZ002>004-007>009-013>016-020>023-029>032-272300-
WESTERN PENNSYLVANIA

CITY           SKY/WX    TMP DP  RH WIND       PRES   REMARKS
ERIE           SUNNY     82  69  64 NE7       30.15R
MEADVILLE      SUNNY     83  62  49 S3        30.18R
FRANKLIN*        N/A     82  63  51 S5        30.19R
NEW CASTLE     FAIR      89  66  46 CALM      30.15R
BEAVER COUNTY  NOT AVBL
BUTLER*        NOT AVBL
PITTSBURGH INT PTSUNNY   88  65  46 S7        30.15R
PITTSBURGH     SUNNY     88  66  48 SW3       30.15R
INDIANA*       SUNNY     88  68  51 SW5       30.20R
LATROBE        SUNNY     86  68  54 SE6       30.15S
WASHINGTON CO* SUNNY     88  70  55 CALM      30.16R
$$

PAZ004>006-010>012-017>019-024>028-033>037-041-042-045-046-049>053-272300-
CENTRAL PENNSYLVANIA

CITY           SKY/WX    TMP DP  RH WIND       PRES   REMARKS
BRADFORD       SUNNY     79  65  62 SE5       30.23R
DUBOIS         SUNNY     83  62  49 SE6       30.20R
CLEARFIELD     MOSUNNY   85  66  53 VRB3      30.20R
JOHNSTOWN      SUNNY     83  65  54 S9        30.22S
ALTOONA        SUNNY     85  65  51 S7        30.19S
STATE COLLEGE  SUNNY     82  68  61 SE3       30.19S
WILLIAMSPORT   MOSUNNY   84  67  56 SE3       30.15S
SELINSGROVE    MOSUNNY   86  68  54 VRB5      30.16S
FT INDIANTOWN  CLOUDY    86  64  48 S3        30.16F
CAPITAL CITY   SUNNY     88  64  44 E7        30.15S
HARRISBURG     PTSUNNY   88  69  53 SE5       30.14S
YORK           SUNNY     87  65  47 SE6       30.15F
$$

PAZ038>040-043-044-047-048-054-055-060>062-067>071-272300-
EASTERN PENNSYLVANIA

CITY           SKY/WX    TMP DP  RH WIND       PRES   REMARKS
SCRANTON       MOSUNNY   82  65  56 S6        30.18S
MOUNT POCONO   SUNNY     77  58  51 S7        30.25S
ALLENTOWN      SUNNY     88  61  40 E5        30.16S
QUAKERTOWN*    CLOUDY    88  61  40 CALM      30.18S
READING        SUNNY     87  63  44 N6        30.15S
LANCASTER      SUNNY     87  68  52 E5        30.15F
COATESVILLE    CLOUDY    86  59  39 CALM      30.19S
POTTSTOWN      CLOUDY    88  59  37 CALM      30.17S
BLUE BELL      CLOUDY    84  61  45 E6        30.15S
DOYLESTOWN     CLOUDY    87  63  44 CALM      30.16
WILLOW GROVE   NOT AVBL
NORTH PHILA    MOSUNNY   86  60  41 E10       30.17S
PHILADELPHIA   CLOUDY    89  61  38 E8        30.14S
$$




USA.gov is the U.S. government's official web portal to all federal, state and local government web resources and services.